Regional Weather Roundup
Issued by NWS Mt. Holly, NJ

Home | Current Version | Previous Version | Text Only | Print | Product List | Glossary On
Versions: 1 2 3 4 5 6 7 8 9 10 11 12 13 14 15 16 17 18 19 20 21 22 23 24 25 26 27
000
ASUS41 KPHI 010912
RWRPHI

REGIONAL WEATHER ROUNDUP
NATIONAL WEATHER SERVICE MOUNT HOLLY NJ
500 AM EDT SUN MAY 01 2016

NOTE:  "FAIR" INDICATES FEW OR NO CLOUDS BELOW 12,000 FEET WITH NO
SIGNIFICANT WEATHER AND/OR OBSTRUCTIONS TO VISIBILITY.

 * = STATION DOES NOT REPORT PRECIPITATION (E.G. RAIN, SNOW, ETC.)
        OR FOG.

NJZ015>026-011000-
SOUTHERN NEW JERSEY

CITY           SKY/WX    TMP DP  RH WIND       PRES   REMARKS
POMONA         LGT RAIN  49  45  86 CALM      30.18S
WILDWOOD*      CLOUDY    50  45  81 E3        30.18R
MILLVILLE      LGT RAIN  48  45  89 CALM      30.18R
WRIGHTSTOWN    CLOUDY    46  43  87 CALM      30.17R
MOUNT HOLLY    CLOUDY    46  42  86 CALM      30.19R
TRENTON        CLOUDY    47  40  76 CALM      30.19R

$$
NJZ001>014-011000-
NORTHERN NEW JERSEY

CITY           SKY/WX    TMP DP  RH WIND       PRES   REMARKS
SUSSEX         LGT RAIN  47  39  74 CALM      30.19R
ANDOVER*         N/A     47  34  60 CALM      30.18S
MORRISTOWN     CLOUDY    46  37  71 CALM      30.19S
NEWARK         CLOUDY    51  39  63 SE3       30.19F
TETERBORO      LGT RAIN  50  35  56 SW3       30.19S
CALDWELL       CLOUDY    49  40  71 CALM      30.19F
SOMERVILLE     CLOUDY    47  41  80 CALM      30.18S
ALLAIRE*       CLOUDY    48  42  80 E3        30.20S
TOMS RIVER*    CLOUDY    46  39  76 CALM      30.19S

$$
PAZ043-044-047-054-055-060>062-066>071-011000-
EASTERN PENNSYLVANIA

CITY           SKY/WX    TMP DP  RH WIND       PRES   REMARKS
PHILADELPHIA   LGT RAIN  50  40  68 SE3       30.19S
NORTH PHILA    CLOUDY    49  42  77 SE3       30.20S
BLUE BELL*     CLOUDY    46  37  71 CALM      30.18R
DOYLESTOWN     CLOUDY    45  38  76 CALM      30.18R
QUAKERTOWN*    CLOUDY    46  37  71 CALM      30.19R
PERKASIE*      CLOUDY    46  37  71 CALM      30.19R
POTTSTOWN      CLOUDY    47  39  74 CALM      30.19R
LANCASTER      LGT RAIN  46  45  96 E3        30.16R
COATESVILLE    DRIZZLE   45  45 100 E3        30.18R
READING        RAIN      47  41  80 SE3       30.16S
ALLENTOWN      CLOUDY    50  36  58 SE5       30.18R
MOUNT POCONO   CLOUDY    41  38  89 SE5       30.14S
HAZLETON       LGT RAIN  41  37  87 SE8       30.15F
LEHIGHTON      DRIZZLE   46  45  93 CALM      30.18S
WILKES BARRE   LGT RAIN  47  41  80 E3        30.13F

$$
DEZALL-MDZ008-012-015-019-020-011000-
DELAWARE AND EASTERN MARYLAND

CITY           SKY/WX    TMP DP  RH WIND       PRES   REMARKS
WILMINGTON     CLOUDY    49  43  80 E5        30.18R
DOVER          LGT RAIN  50  50 100 SE2       30.16S
GEORGETOWN     CLOUDY    49  47  93 SE3       30.16F
EASTON         CLOUDY   N/A N/A N/A CALM      30.19S
PATUXENT       CLOUDY    54  47  77 S5        30.16R
OCEAN CITY     CLOUDY    51  47  86 E8        30.15F
WALLOPS ISLAND CLOUDY    53  47  79 E7        30.15F
CAMBRIDGE      CLOUDY    50  45  81 CALM      30.15S
SALISBURY      CLOUDY    50  48  93 E5        30.15F

$$
PAZ001-021-NYZ056-072-MDZ011-DCZ001-011000-
OTHER NEARBY LOCATIONS

CITY           SKY/WX    TMP DP  RH WIND       PRES   REMARKS
HARRISBURG     LGT RAIN  48  45  89 SE10      30.13F FOG
STATE COLLEGE  RAIN      49  47  93 S6        30.03F
WILLIAMSPORT   LGT RAIN  48  46  93 E18G24    30.08S
BINGHAMTON     LGT RAIN  44  44 100 SE10      30.08F FOG
NEW YORK CITY  CLOUDY    50  34  54 CALM      30.22S
BALTIMORE      LGT RAIN  49  47  93 E3        30.14S
WASHINGTON DC  LGT RAIN  52  50  93 S8        30.13F

$$




USA.gov is the U.S. government's official web portal to all federal, state and local government web resources and services.